• In Kazakhstan
  • List of Countries
  • For 7 days
  • Water Temperature
  • Satellite Maps
  • Weather Map
  • News
  • Weather Widgets
  • user-avatar
    Login

    Hourly Weather Malanje

    Today, 18 November, Sunday

    Time Temperature Precipitation Wind Pressure Humidity
    00:00 +21°C° 0.3 mm 1 mps 666 mmHg 89%
    01:00 +21°C° 0 mm 1 mps 665 mmHg 93%
    02:00 +21°C° 0.3 mm 1 mps 665 mmHg 95%
    03:00 +21°C° 0.3 mm 1 mps 665 mmHg 96%
    04:00 +20°C° 0.3 mm 1 mps 665 mmHg 98%
    05:00 +21°C° 0.1 mm 1 mps 665 mmHg 96%
    06:00 +22°C° 0.1 mm 1 mps 666 mmHg 94%
    07:00 +23°C° 0 mm 1 mps 666 mmHg 93%
    08:00 +24°C° 0.3 mm 1 mps 666 mmHg 88%
    09:00 +25°C° 0.3 mm 1 mps 666 mmHg 84%
    10:00 +26°C° 0.3 mm 1 mps 667 mmHg 79%
    11:00 +28°C° 0.6 mm 1 mps 666 mmHg 73%
    12:00 +29°C° 0.6 mm 1 mps 666 mmHg 67%
    13:00 +30°C° 0 mm 1 mps 666 mmHg 66%
    14:00 +29°C° 1.4 mm 1 mps 665 mmHg 70%
    15:00 +28°C° 1.4 mm 1 mps 665 mmHg 73%
    16:00 +27°C° 1.4 mm 1 mps 664 mmHg 77%
    17:00 +25°C° 0.5 mm 1 mps 664 mmHg 82%
    18:00 +24°C° 0.5 mm 1 mps 664 mmHg 86%
    19:00 +22°C° 0.5 mm 1 mps 664 mmHg 90%
    20:00 +22°C° 0.3 mm 1 mps 665 mmHg 91%
    21:00 +21°C° 0.3 mm 1 mps 665 mmHg 92%
    22:00 +21°C° 0.3 mm 1 mps 665 mmHg 94%
    23:00 +21°C° 1.2 mm 1 mps 665 mmHg 95%

    Tomorrow, 19 November, Monday

    Time Temperature Precipitation Wind Pressure Humidity
    00:00 +21°C° 1.2 mm 1 mps 665 mmHg 96%
    01:00 +20°C° 1.2 mm 1 mps 665 mmHg 97%
    02:00 +20°C° 1.4 mm 1 mps 665 mmHg 97%
    03:00 +20°C° 1.4 mm 1 mps 665 mmHg 97%
    04:00 +20°C° 1.4 mm 1 mps 664 mmHg 97%
    05:00 +21°C° 1.2 mm 1 mps 665 mmHg 96%
    06:00 +21°C° 1.2 mm 1 mps 666 mmHg 94%
    07:00 +20°C° 1.2 mm 0 mps 666 mmHg 92%
    08:00 +22°C° 0.6 mm 0 mps 666 mmHg 87%
    09:00 +23°C° 0.6 mm 0 mps 667 mmHg 81%
    10:00 +25°C° 0.6 mm 0 mps 667 mmHg 75%
    11:00 +26°C° 0.5 mm 0 mps 667 mmHg 70%
    12:00 +27°C° 0.5 mm 0 mps 666 mmHg 65%
    13:00 +28°C° 0.5 mm 0 mps 666 mmHg 60%
    14:00 +27°C° 1.2 mm 0 mps 665 mmHg 62%
    15:00 +27°C° 1.2 mm 0 mps 665 mmHg 63%
    16:00 +26°C° 1.2 mm 0 mps 664 mmHg 65%
    17:00 +25°C° 0.5 mm 0 mps 664 mmHg 71%
    18:00 +25°C° 0.5 mm 1 mps 664 mmHg 76%
    19:00 +23°C° 0.5 mm 1 mps 664 mmHg 82%
    20:00 +22°C° 0.1 mm 1 mps 664 mmHg 85%
    21:00 +22°C° 0.1 mm 1 mps 665 mmHg 88%
    22:00 +21°C° 0.1 mm 1 mps 665 mmHg 91%
    23:00 +21°C° 0.1 mm 1 mps 665 mmHg 92%

    Day after tomorrow, 20 November, Tuesday

    Time Temperature Precipitation Wind Pressure Humidity
    00:00 +21°C° 0.1 mm 1 mps 664 mmHg 94%
    01:00 +19°C° 0.1 mm 2 mps 664 mmHg 96%
    02:00 +19°C° 0.1 mm 2 mps 664 mmHg 96%
    03:00 +20°C° 0.1 mm 1 mps 664 mmHg 97%
    04:00 +20°C° 0.1 mm 1 mps 664 mmHg 97%
    05:00 +21°C° 0.4 mm 1 mps 665 mmHg 96%
    06:00 +21°C° 0.4 mm 1 mps 665 mmHg 95%
    07:00 +22°C° 0.4 mm 1 mps 666 mmHg 94%
    08:00 +23°C° 0.2 mm 1 mps 666 mmHg 89%
    09:00 +24°C° 0.2 mm 1 mps 667 mmHg 83%
    10:00 +26°C° 0.2 mm 1 mps 667 mmHg 78%
    11:00 +27°C° 1.1 mm 1 mps 666 mmHg 76%
    12:00 +27°C° 1.1 mm 1 mps 666 mmHg 74%
    13:00 +28°C° 1.1 mm 2 mps 665 mmHg 72%
    14:00 +27°C° 1.9 mm 2 mps 664 mmHg 76%
    15:00 +26°C° 1.9 mm 2 mps 664 mmHg 81%
    16:00 +26°C° 1.9 mm 2 mps 664 mmHg 86%
    17:00 +24°C° 0.6 mm 2 mps 664 mmHg 88%
    18:00 +23°C° 0.6 mm 2 mps 664 mmHg 91%
    19:00 +21°C° 0.6 mm 2 mps 664 mmHg 94%
    20:00 +21°C° 0 mm 2 mps 665 mmHg 95%
    21:00 +20°C° 0 mm 2 mps 665 mmHg 95%
    22:00 +20°C° 0 mm 2 mps 666 mmHg 96%
    23:00 +21°C° 1.1 mm 1 mps 666 mmHg 97%

    21 November, Wednesday

    Time Temperature Precipitation Wind Pressure Humidity
    00:00 +21°C° 1.1 mm 1 mps 665 mmHg 97%
    01:00 +21°C° 1.1 mm 1 mps 665 mmHg 97%
    02:00 +21°C° 0.6 mm 1 mps 665 mmHg 97%
    03:00 +20°C° 0.6 mm 1 mps 665 mmHg 96%
    04:00 +20°C° 0.6 mm 1 mps 664 mmHg 96%
    05:00 +20°C° 0.3 mm 1 mps 665 mmHg 96%
    06:00 +21°C° 0.3 mm 1 mps 665 mmHg 96%
    07:00 +19°C° 0.3 mm 0 mps 666 mmHg 95%
    08:00 +21°C° 0.7 mm 1 mps 666 mmHg 94%
    09:00 +22°C° 0.7 mm 1 mps 667 mmHg 93%
    10:00 +22°C° 0.7 mm 1 mps 667 mmHg 92%
    11:00 +24°C° 0.4 mm 1 mps 667 mmHg 86%
    12:00 +25°C° 0.4 mm 1 mps 666 mmHg 80%
    13:00 +26°C° 0.4 mm 1 mps 665 mmHg 74%
    14:00 +26°C° 0.4 mm 1 mps 665 mmHg 76%
    15:00 +26°C° 0.4 mm 1 mps 665 mmHg 78%
    16:00 +25°C° 0.4 mm 1 mps 664 mmHg 80%
    17:00 +24°C° 0.3 mm 1 mps 664 mmHg 84%
    18:00 +23°C° 0.3 mm 1 mps 665 mmHg 87%
    19:00 +22°C° 0.3 mm 1 mps 665 mmHg 91%
    20:00 +21°C° 0 mm 1 mps 665 mmHg 91%
    21:00 +21°C° 0 mm 1 mps 665 mmHg 91%
    22:00 +21°C° 0 mm 1 mps 666 mmHg 91%
    23:00 +20°C° 0 mm 1 mps 665 mmHg 92%

    22 November, Thursday

    Time Temperature Precipitation Wind Pressure Humidity
    00:00 +20°C° 0 mm 1 mps 665 mmHg 93%
    01:00 +19°C° 0 mm 1 mps 664 mmHg 94%
    02:00 +17°C° 0 mm 0 mps 664 mmHg 95%
    03:00 +17°C° 0 mm 0 mps 664 mmHg 95%
    04:00 +17°C° 0 mm 0 mps 664 mmHg 96%
    05:00 +18°C° 0 mm 0 mps 664 mmHg 94%
    06:00 +18°C° 0 mm 0 mps 665 mmHg 92%
    07:00 +19°C° 0 mm 0 mps 666 mmHg 91%
    08:00 +21°C° 0 mm 0 mps 666 mmHg 83%
    09:00 +23°C° 0 mm 0 mps 667 mmHg 76%
    10:00 +25°C° 0 mm 0 mps 667 mmHg 69%
    11:00 +28°C° 0.4 mm 1 mps 667 mmHg 66%
    12:00 +28°C° 0.4 mm 1 mps 666 mmHg 63%
    13:00 +29°C° 0.4 mm 2 mps 665 mmHg 61%
    14:00 +28°C° 0.7 mm 1 mps 665 mmHg 66%
    15:00 +27°C° 0.7 mm 1 mps 664 mmHg 71%
    16:00 +27°C° 0.7 mm 1 mps 664 mmHg 76%
    17:00 +25°C° 1.3 mm 1 mps 664 mmHg 81%
    18:00 +23°C° 1.3 mm 1 mps 664 mmHg 86%
    19:00 +22°C° 1.3 mm 1 mps 664 mmHg 91%
    20:00 +21°C° 0.7 mm 1 mps 665 mmHg 92%
    21:00 +21°C° 0.7 mm 1 mps 665 mmHg 94%
    22:00 +20°C° 0.7 mm 2 mps 665 mmHg 96%
    23:00 +21°C° 0.2 mm 1 mps 665 mmHg 97%

    23 November, Friday

    Time Temperature Precipitation Wind Pressure Humidity
    00:00 +21°C° 0.2 mm 1 mps 665 mmHg 97%
    01:00 +20°C° 0.2 mm 1 mps 664 mmHg 98%
    02:00 +20°C° 0.3 mm 1 mps 664 mmHg 98%
    03:00 +20°C° 0.3 mm 1 mps 664 mmHg 98%
    04:00 +20°C° 0.3 mm 1 mps 664 mmHg 98%
    05:00 +20°C° 0.1 mm 1 mps 665 mmHg 98%
    06:00 +21°C° 0.1 mm 1 mps 665 mmHg 97%
    07:00 +21°C° 0.1 mm 1 mps 666 mmHg 97%
    08:00 +22°C° 0.2 mm 1 mps 666 mmHg 91%
    09:00 +24°C° 0.2 mm 1 mps 666 mmHg 86%
    10:00 +25°C° 0.2 mm 1 mps 667 mmHg 81%
    11:00 +26°C° 0.4 mm 1 mps 666 mmHg 75%
    12:00 +27°C° 0.4 mm 2 mps 665 mmHg 70%
    13:00 +28°C° 0.4 mm 2 mps 665 mmHg 65%
    14:00 +28°C° 0.1 mm 2 mps 664 mmHg 66%
    15:00 +27°C° 0.1 mm 2 mps 664 mmHg 67%
    16:00 +27°C° 0.1 mm 2 mps 664 mmHg 69%
    17:00 +26°C° 0.2 mm 1 mps 664 mmHg 75%
    18:00 +24°C° 0.2 mm 1 mps 664 mmHg 81%
    19:00 +22°C° 0.2 mm 1 mps 664 mmHg 87%
    20:00 +22°C° 0.1 mm 1 mps 664 mmHg 88%
    21:00 +21°C° 0.1 mm 1 mps 665 mmHg 90%
    22:00 +21°C° 0.1 mm 1 mps 665 mmHg 91%
    23:00 +21°C° 0 mm 1 mps 665 mmHg 93%
    Show more